Regional Weather Roundup
Issued by NWS

Home | Current Version | Previous Version | Graphics & Text | Print | Product List | Glossary On
Versions: 1 2 3 4 5 6 7 8 9 10 11 12 13 14 15 16 17 18 19 20 21 22 23 24 25 26 27 28 29 30 31 32 33 34 35 36 37 38 39 40 41 42 43 44 45 46 47 48 49 50
000
ASUS43 KDMX 051303
RWRIA

WEATHER ROUNDUP FOR IOWA
NATIONAL WEATHER SERVICE DES MOINES IA
800 AM CDT THU MAY 05 2016

NOTE: "FAIR" INDICATES FEW OR NO CLOUDS BELOW 12,000 FEET WITH NO
SIGNIFICANT WEATHER AND/OR OBSTRUCTIONS TO VISIBILITY.

* - THESE STATIONS ARE NOT NWS STATIONS...THUS NOT UNDER NWS
QUALITY CONTROL.  THEY ALSO DO NOT REPORT WEATHER SUCH
AS PRECIPITATION OR FOG.

IAZ001>003-012>014-020>022-031>034-043>046-051400-
   NORTHWEST IOWA

CITY           SKY/WX    TMP DP  RH WIND       PRES   REMARKS
CARROLL *      SUNNY     46  41  81 CALM      30.07R
CHEROKEE *     SUNNY     42  42 100 CALM      30.07R
DENISON *      SUNNY     41  41 100 CALM      30.06R
LE MARS *      SUNNY     43  39  87 CALM      30.08R
ORANGE CITY *  SUNNY     48  37  66 CALM      30.07R
SHELDON *      SUNNY     46  39  76 CALM      30.05S
SIOUX CITY     SUNNY     47  41  80 CALM      30.08R
SPENCER        SUNNY     45  40  82 CALM      30.06R
STORM LAKE *   SUNNY     52  37  58 SW6       30.07R
$$

IAZ055>058-069>071-079>083-090>094-051400-
   SOUTHWEST IOWA

CITY           SKY/WX    TMP DP  RH WIND       PRES   REMARKS
ATLANTIC *     MOSUNNY   43  41  93 CALM      30.08R
AUDUBON *      SUNNY     43  39  87 CALM      30.08R
CLARINDA *       N/A    N/A N/A N/A MISG        N/A
COUNCIL BLFS * SUNNY     52  43  71 CALM      30.08R
CRESTON *      SUNNY     52  39  62 CALM      30.09R
HARLAN  *      SUNNY     45  41  87 CALM      30.10S
LAMONI         SUNNY     50  38  63 NE6       30.07R
RED OAK *      SUNNY     46  43  87 CALM      30.08R
SHENANDOAH *   SUNNY     48  46  93 CALM      30.08S
$$

IAZ047>049-059>061-072>074-084-051400-
   CENTRAL IOWA

CITY           SKY/WX    TMP DP  RH WIND       PRES   REMARKS
AMES           SUNNY     47  38  71 CALM      30.08R
ANKENY *       SUNNY     46  41  81 CALM      30.08R
BOONE *        SUNNY     50  32  50 E3        30.07R
CHARITON *     SUNNY     48  37  66 NE5       30.07R
DES MOINES     MOSUNNY   52  33  48 E5        30.08R
GRINNELL*      SUNNY     45  36  70 CALM      30.08R
KNOXVILLE *    SUNNY     50  34  53 NE5       30.06R
MARSHALLTOWN   SUNNY     47  37  68 CALM      30.07R
NEWTON *       SUNNY     48  32  53 NE6       30.07R
PERRY *          N/A     46  41  81 CALM      30.07R
$$

IAZ004>006-015-016-023>025-035-036-051400-
   NORTH CENTRAL IOWA

CITY           SKY/WX    TMP DP  RH WIND       PRES   REMARKS
ALGONA *       SUNNY     48  37  66 S5        30.07R
CLARION *      SUNNY     46  34  61 E5        30.08R
ESTHERVILLE    SUNNY     46  39  76 S3        30.07R
FORT DODGE *   SUNNY     45  37  76 CALM      30.08R
MASON CITY     MOSUNNY   44  35  70 CALM      30.09R
FOREST CITY *    N/A     45  36  70 CALM      30.07S
WEBSTER CITY * SUNNY     46  37  71 CALM      30.06R
IOWA FALLS *     N/A     46  34  61 CALM      30.08R
$$

IAZ007>011-017>019-026>030-037>042-050>054-066-051400-
   NORTHEAST IOWA

CITY           SKY/WX    TMP DP  RH WIND       PRES   REMARKS
CEDAR RAPIDS   SUNNY     48  37  65 N7        30.05R
CHARLES CITY * CLOUDY    45  32  61 CALM      30.08R
CLINTON *      SUNNY     45  37  73 N12       30.04R
DECORAH *      MOSUNNY   45  34  65 CALM      30.05S
DUBUQUE        SUNNY     45  35  68 NE13      30.05R
MONTICELLO *   SUNNY     46  36  66 N9        30.05S
OELWEIN *      SUNNY     46  34  61 NE6       30.07R
WATERLOO       SUNNY     46  35  65 N3        30.07R
$$

IAZ064-065-067-068-078-051400-
   EAST CENTRAL IOWA

CITY           SKY/WX    TMP DP  RH WIND       PRES   REMARKS
DAVENPORT      SUNNY     45  35  68 N15       30.05R
IOWA CITY      SUNNY     49  35  58 N10       30.07R
MT. PLEASANT * SUNNY     48  37  66 N9        30.05R
MUSCATINE *    SUNNY     48  36  61 N8        30.06R
QUAD CITIES    SUNNY     48  36  63 NE9       30.03R
$$

IAZ062-063-075>077-085>089-095>099-051400-
   SOUTHEAST IOWA

CITY           SKY/WX    TMP DP  RH WIND       PRES   REMARKS
BURLINGTON     SUNNY     48  39  71 NE6       30.03R
FAIRFIELD *    SUNNY     48  36  61 N8        30.06R
FORT MADISON * SUNNY     46  37  71 N6        30.05R
KEOKUK *       SUNNY     48  37  66 N6        30.03R
OSKALOOSA *      N/A     46  34  61 N5        30.07R
OTTUMWA        SUNNY     47  36  65 N6        30.06R
WASHINGTON *   SUNNY     48  36  61 N12       30.07R
$$

ABBREVIATIONS USED IN REMARKS
   TC - TEMPERATURES IN CELSIUS
  WCI - WIND CHILL INDEX
   HX - HEAT INDEX
  VSB - VISIBILITY
$$




USA.gov is the U.S. government's official web portal to all federal, state and local government web resources and services.